Glennallen, AK (99588)

11:18 PM AKDT on March 26, 2017 (GMT -0800)
Glennallen School | | Change Station

Elev 1500 ft 62.11 °N, 145.53 °W | Updated 7 seconds ago

Overcast
Overcast
18.1 °F
Feels Like 18 °F
N
1.1
Wind Variable Wind from WSW
Gusts 1.1 mph

Today
High -- | Low -- °F
--% Chance of Precip.
Yesterday
High -- | Low -- °F
Precip. -- in
Pressure 29.74 in
Visibility 10.0 miles
Clouds Overcast 6500 ft
Windchill 18 °F
Dew Point 13 °F
Humidity 80%
Rainfall 0.00 in
Snow Depth Not available.
7:22 AM 8:14 PM
Waning Crescent, 1% visible
METAR PAGK 270653Z AUTO 22003KT 10SM OVC065 M08/M11 A2960 RMK AO2 SLP069 T10781111 TSNO $
Pressure 29.74 in
Visibility 10.0 miles
Clouds Overcast 6500 ft
Windchill 18 °F
Dew Point 13 °F
Humidity 80%
Rainfall 0.00 in
Snow Depth Not available.
7:22 AM 8:14 PM
Waning Crescent, 1% visible
METAR PAGK 270653Z AUTO 22003KT 10SM OVC065 M08/M11 A2960 RMK AO2 SLP069 T10781111 TSNO $

Get Severe Weather Alerts

Thanks for signing up!

Be on the lookout for a verification email in your inbox.

You'll start receiving the daily forecast at 8 AM.

×

10-Day Weather Forecast

Almanac

Astronomy

Mar. 26, 2017 Rise Set
Actual Time
Civil Twilight
Nautical Twilight
Astronomical Twilight
Moon
Length of Visible Light
Length of Day
Tomorrow will be .
, % of the Moon is Illuminated

Today's Extremes

State Highs State Lows

Community

WunderPhotos

Upload Photos

1,962,540 photos uploaded!

WunderBlog® & News

Nearby

Air Quality

  Air Quality AQ Index Pollutant
Not available.

Snow Depth

Station Depth Elevation

Earthquake Activity

City Distance Mag. Time & Date
Minimum magnitude displayed is 2.5.

Earthquake Activity

City Distance Mag. Time & Date
Minimum magnitude displayed is 2.5.

Coastal Water Temperatures

Place Temperature

Stations

Nearby Weather Stations

Station Location Temp. Windchill Dew Point Humidity Wind Precip. Elev Updated Type
                   

Watches & Warnings

There are currently no watches in effect.